Home > Time Zones > World Clock > Weather > Laos > Pakse > Past weeks

Flag for Laos Weather past 2 weeks in Pakse, Laos

Now
81 °F

Sunny.


Feels Like: 83 °F
Forecast: 71 / 96 °F
Wind: 8 mph from Northeast

Location: Ubon Ratchathani Airport

Current Time: Mar 28, 2015 at 8:49:56 AM

Latest Report: Mar 28, 2015 at 8:00 AM


Visibility: 10 mi

Pressure: 29.98 "Hg

Humidity: 66%

Dew point: 68 °F

Location of PakseLocation

Historic Weather in Pakse — Graph

°F

Pakse temperature yesterday

Maximum temperature yesterday: 95 °F (at 4:00 PM)
Minimum temperature yesterday: 73 °F (at 6:00 AM)
Average temperature yesterday: 83 °F

Past Weeks' High & Low Weather Summary

 TemperatureHumidityPressure
High99 °F (Mar 16, 4:00 PM)100% (Mar 15, 2:00 AM)30.04 "Hg (Mar 15, 2:00 AM)
Low72 °F (Mar 15, 2:00 AM)28% (Mar 25, 4:00 PM)29.68 "Hg (Mar 17, 5:00 PM)
Average84 °F62%29.87 "Hg
* Reported Mar 13 7:00 AM — Mar 28 7:00 AM, Pakse, Weather by CustomWeather, © 2015

Note: Actual official high and low records may vary slightly from our data, if they occured in-between our weather recording intervals... More about our weather records

Advertising

Pakse weather history for previous 24 hours

 ConditionsComfort  
Time TempWeatherWind HumidityBarometerVisibility
7:00 AM
Sat, Mar 28
75 °FSunny.7 mph74%29.98 "Hg10 mi
6:30 AM73 °FSunny.7 mph78%29.95 "Hg10 mi
6:00 AM73 °FClear.7 mph78%29.95 "Hg6 mi
5:00 AM73 °FClear.6 mph78%29.92 "Hg6 mi
4:00 AM73 °FClear.3 mph74%29.92 "Hg6 mi
2:00 AM75 °FClear.3 mph74%29.92 "Hg6 mi
1:00 AM77 °FClear.5 mph65%29.95 "Hg6 mi
12:00 AM79 °FPartly cloudy.8 mph61%29.95 "Hg6 mi
10:00 PM
Fri, Mar 27
81 °FPartly cloudy.10 mph58%29.95 "Hg6 mi
9:00 PM77 °FPartly cloudy.5 mph74%29.95 "Hg6 mi
7:00 PM81 °FPartly cloudy.6 mph62%29.92 "Hg6 mi
6:00 PM88 °FBroken clouds.10 mph43%29.89 "Hg6 mi
5:30 PM91 °FBroken clouds.5 mph36%29.86 "Hg6 mi
5:00 PM93 °FPartly sunny.3 mph34%29.86 "HgN/A
4:00 PM95 °FPartly sunny.3 mph32%29.86 "HgN/A
3:00 PM93 °FBroken clouds.3 mph34%29.86 "HgN/A
2:00 PM93 °FBroken clouds.5 mph34%29.89 "HgN/A
1:00 PM93 °FPartly sunny.5 mph36%29.95 "HgN/A
12:00 PM91 °FPartly sunny.7 mph41%29.98 "HgN/A
11:00 AM88 °FPartly sunny.8 mph46%30.01 "HgN/A
9:00 AM82 °FSunny.9 mph58%30.04 "Hg10 mi
8:00 AM79 °FSunny.9 mph65%30.04 "Hg10 mi
Weather by CustomWeather, © 2015

See weather overviewHow to use our weather pages